www.pogodaiklimat.ru

Погода и климат >> Архив погоды >> Беларусь >> Ошмяны


ПОГОДА в Ошмянах

  • Прогноз погоды в Ошмянах
  • Монитор погоды в Ошмянах

АРХИВ ПОГОДЫ в Ошмянах

Время (UTC), дата Ветер
(напр.,м/с)
 
Видим.   Явления Облачность Т
(С)
Тd
(С)
f
(%)
Тe
(С)
Тes
(С)
Комфортность P
(гПа)
Po
(гПа)
Тmin
(С)
Tmax
(С)
R
(мм)
R24
(мм)
S
(см)
18 18.06 С 1 35 км 3/0
[Ci fib]
+22.2 +11.0 49 +24 +24 комфорт 1018.0 993.5 +25.4
21 18.06 штиль 0 30 км 3/0
[Ci fib]
+16.3 +12.1 76 +16 +16 1019.0 994.0
00 19.06 штиль 0 35 км ясно +12.7 +10.8 88 +12 +12 1020.0 994.6
03 19.06 штиль 0 35 км 1/0
[Ci fib]
+14.0 +10.0 77 +14 +14 1019.0 993.8 +10.9
06 19.06 СВ 1 28 км 3/0
[Ci sp]
+21.3 +11.9 55 +23 +29 комфорт 1018.0 993.4 +10.9
09 19.06 ЮЗ 2 35 км 8/3 600 м
[Cu hum Ci sp]
+24.5 +10.0 40 +25 +25 комфорт 1018.0 993.7
12 19.06 СВ 1 35 км 4/3 600 м
[Cu hum Ci sp]
+26.1 +9.8 36 +27 +39 жарко 1016.0 991.9
15 19.06 ЮВ 3 35 км 4/3 1000 м
[Cu hum Ci fib]
+26.7 +10.0 35 +27 +30 жарко 1015.0 990.9
18 19.06 ЮВ 3 35 км 4/0
[Ac trans Ci fib]
+25.1 +11.3 42 +26 +26 жарко 1014.0 989.8 +28.0
21 19.06 штиль 0 35 км 3/0
[Ac trans]
+18.8 +12.1 65 +19 +19 1015.0 990.3
00 20.06 СВ 2 35 км 4/3 600 м
[Sc Ac trans]
+14.9 +11.3 79 +15 +15 1015.0 990.0
03 20.06 СВ 2 35 км 9/8 600 м
[Sc Ac trans]
+17.2 +11.5 69 +18 +18 1014.0 989.2 +14.6
06 20.06 штиль 0 29 км 9/6 600 м
[Cb cap Ac trans]
+21.2 +13.4 61 +24 +24 комфорт 1013.0 988.6 +14.6
09 20.06 Ю 3 35 км 9/0
[Ac trans]
+25.7 +14.8 51 +28 +28 жарко 1012.0 988.0
12 20.06 ЮВ 6 35 км 8/3 600 м
[Cu med, cong Ac lent Ci fib]
+26.1 +14.5 49 +29 +29 жарко 1012.0 988.0
15 20.06 ЮВ 5 35 км 9/5 600 м
[Cb cap Ac lent Cs]
+26.3 +16.2 54 +30 +30 душно 1010.0 986.1
18 20.06 Ю 2
{15}
9000 м слаб. ливневой дождь, в посл. час гроза 10/9 300 м
[Cb cap Ac As]
+18.7 +17.9 95 +20 +20 1012.0 987.4 +28.1 2
21 20.06 Ю 1 13 км {ливн. осадки} 9/4 600 м
[Cb cap Ac As]
+18.1 +17.1 94 +19 +19 1012.0 987.4
00 21.06 ЮВ 1 6000 м дымка {ливн. осадки} 9/3 600 м
[Cb cap Ac trans Cs]
+17.7 +17.1 96 +19 +19 1013.0 988.3
03 21.06 СВ 1 4400 м дымка 9/0
[Ac trans Ci fib]
+17.5 +17.0 97 +19 +19 1012.0 987.3 +17.3
06 21.06 ЮЗ 3 19 км 9/9 600 м
[St]
+20.5 +18.3 87 +25 +25 комфорт 1013.0 988.6 +17.3 2
09 21.06 Ю 3 35 км 9/1 600 м
[Cu hum Ci sp]
+24.7 +18.4 68 +29 +29 душно 1013.0 988.9
12 21.06 Ю 3 9000 м слаб. ливневой дождь 9/8 600 м
[Cb cap Ci fib]
+26.4 +17.5 58 +31 +31 душно 1012.0 988.0
15 21.06 Ю 2
{11}
9000 м гроза, ливневой дождь 9/8 600 м
[Cb cap Ci sp]
+21.3 +17.7 80 +25 +25 комфорт 1013.0 988.6
18 21.06 З 2 9000 м слаб. ливневой дождь {гроза} 9/8 600 м
[Cb cap Ac lent Cs]
+19.3 +18.1 93 +22 +22 комфорт 1013.0 988.4 +27.9 6
21 21.06 Ю 2 30 км в посл. час ливневой дождь 9/9 600 м
[Cb cap]
+18.5 +17.2 92 +20 +20 1014.0 989.3
00 22.06 ЮЗ 2 16 км {ливн. осадки} 9/3 600 м
[Cb cap Ac trans]
+17.2 +16.6 96 +18 +18 1015.0 990.2
03 22.06 З 3 13 км 9/9 600 м
[St]
+17.2 +16.7 97 +17 +17 1016.0 991.2 +16.5
06 22.06 СЗ 5 20 км {ливн. осадки} 9/3 600 м
[Sc Ac trans Cs]
+18.5 +15.0 80 +19 +19 1017.0 992.3 +16.5 0.3
09 22.06 СЗ 5
{10}
30 км 4/1 600 м
[Cu hum Ci sp]
+21.1 +13.0 60 +23 +29 комфорт 1019.0 994.4
12 22.06 СЗ 5 35 км 4/1 1000 м
[Cu hum Ci fib]
+23.3 +10.7 45 +25 +31 комфорт 1019.0 994.6
15 22.06 СЗ 6 35 км 3/0
[Ci fib]
+23.4 +7.9 37 +24 +26 комфорт 1019.0 994.6
18 22.06 СЗ 3 35 км 6/0
[Ci fib]
+21.1 +8.0 43 +22 +22 комфорт 1020.0 995.3 +24.5
21 22.06 СЗ 2 35 км 1/0
[Ac lent]
+15.3 +8.8 65 +15 +15 1021.0 995.8
00 23.06 штиль 0 35 км 3/0
[Ci fib]
+13.7 +7.7 67 +13 +13 1022.0 996.7
03 23.06 СВ 1 35 км 8/0
[Ac lent Ci fib]
+12.0 +8.5 79 +12 +12 1022.0 996.5 +10.9
06 23.06 СВ 4 35 км 4/0
[Ci sp]
+16.1 +8.6 61 +15 +19 1023.0 997.8 +10.9
09 23.06 В 3 35 км 4/3 600 м
[Cu hum Ci sp]
+20.5 +9.1 48 +22 +31 комфорт 1022.0 997.2
12 23.06 С 2 29 км 3/1 600 м
[Cu hum Ci fib]
+23.0 +6.3 34 +24 +34 комфорт 1022.0 997.4
15 23.06 С 2 30 км 3/0
[Ci fib]
+23.6 +7.6 36 +24 +28 комфорт 1021.0 996.5
18 23.06 СВ 2 35 км 1/0
[Ci fib]
+20.6 +8.2 45 +23 +23 комфорт 1021.0 996.3 +24.0
21 23.06 штиль 0 35 км 3/0
[Ci fib]
+15.7 +6.7 55 +16 +16 1024.0 998.8
00 24.06 штиль 0 35 км 3/0
[Ci fib]
+11.2 +8.1 81 +11 +11 1024.0 998.4
03 24.06 штиль 0 35 км ясно +10.3 +7.4 82 +10 +10 1026.0 1000.3 +9.1
06 24.06 штиль 0 35 км 8/0
[Ci fib]
+20.2 +8.8 48 +21 +21 комфорт 1026.0 1001.1 +9.1
09 24.06 СВ 2 30 км 8/0
[Ci fib]
+23.0 +7.5 37 +24 +24 комфорт 1026.0 1001.3
12 24.06 СЗ 2 35 км 8/0
[Ci fib]
+24.9 +6.1 30 +25 +25 комфорт 1025.0 1000.5
15 24.06 СВ 1
{10}
35 км 8/0
[Ci fib]
+26.0 +6.6 29 +26 +26 жарко 1025.0 1000.6
18 24.06 С 1 10 км 10 баллов +20.7 +8.7 46 +23 +23 комфорт 1026.0 1001.2 +26.4
21 24.06 СВ 1 10 км 10 баллов +16.0 +7.7 58 +17 +17 1028.0 1002.7
00 25.06 штиль 0 10 км 10 баллов +14.1 +8.3 68 +14 +14 1029.0 1003.5
03 25.06 СВ 1 10 км 6 баллов +12.3 +8.2 76 +12 +13 1030.0 1004.3 +11.5
06 25.06 В 1 10 км 10 баллов +19.7 +9.8 53 +22 +22 комфорт 1030.0 1005.0 +11.5
09 25.06 ЮВ 1 10 км 6 баллов +25.3 +9.1 36 +26 +33 жарко 1029.0 1004.5
12 25.06 З 1 10 км 6 баллов +26.5 +7.5 30 +26 +33 жарко 1028.0 1003.6
15 25.06 ЮЗ 3 10 км 10 баллов +26.7 +8.6 32 +27 +27 жарко 1026.0 1001.7

 

Местоположение метеостанции Ошмяны (Гродненская область, Беларусь): широта 54.43 долгота 25.93 высота над уровнем моря 211 м.

В архиве по умолчанию представлена погода в Ошмянах за последнюю неделю. Архивные данные за месяц целиком и за предыдущие месяцы, начиная с января 2011 года, Вы можете получить, выбрав интересующий диапазон дат из раскрывающегося списка и нажав кнопку "Ввод!".


*Определитесь, кто Вы:
робот инопланетянин человек

Внимание! Время в таблицах - всемирное. Для получения местного времени необходимо прибавить поправку, которая равна 3 ч.

Смотрите также архив погоды в соседних городах и на ближайших метеорологических станциях:

Погода в Вильнюсе (Литва) (47 км)
Погода в Воложине (Минская область, Беларусь) (54 км)
Погода в Вилейке (Минская область, Беларусь) (69 км)
Погода в Лиде (Гродненская область, Беларусь) (71 км)
Погода в Лынтупах (Витебская область, Беларусь) (73 км)
Погода в Нарочи (Минская область, Беларусь) (75 км)
Погода в Швенчёнисе (Литва) (82 км)
Погода в Варена (Литва) (92 км)
Погода в Новогрудке (Гродненская область, Беларусь) (92 км)
Погода в Столбцах (Минская область, Беларусь) (118 км)

Пояснения к столбцам:

Ветер - указаны скорость ветра в м/с - средняя за 10 мин, порывы в срок и между сроками (в фигурных скобках) и направление, откуда дует ветер: С - северный, СВ - северо-восточный, В - восточный, ЮВ - юго-восточный, Ю - южный, ЮЗ - юго-западный, З - западный, СЗ - северо-западный.
Видимость - горизонтальная дальность видимости в метрах или километрах. При видимости от 1 до 10 км при отсутствии осадков обычно наблюдается дымка, при ухудшении видимости до 1 км и менее - туман. В сухую погоду видимость может ухудшаться дымом, пылью или мглою.
Явления - указаны атмосферные явления, наблюдавшиеся в срок или в последний час перед сроком; фигурными скобками обозначены явления, наблюдавшиеся между сроками (за 1-3 часа до срока); квадратными скобками обозначены град или гололедные отложения с указанием их диаметра в мм.
Облачность - указаны через наклонную черту общая и нижняя облачность в баллах и высота нижней границы облаков в метрах; квадратными скобками обозначены формы облаков: Ci - перистые, Cs - перисто-слоистые, Cc - перисто-кучевые, Ac - высококучевые, As - высокослоистые, Sc - слоисто-кучевые, Ns - слоисто-дождевые, Cu - кучевые, Cb - кучево-дождевые. Подробнее классификацию облаков см. в Атласе облаков (PDF).
T - Температура воздуха - температура, измеренная на высоте 2 м над землей.
Td - Температура точки росы - температура, при понижении до которой содержащийся в воздухе водяной пар достигнет насыщения.
f - Относительная влажность воздуха - влажноcть воздуха, измеренная на высоте 2 м над землей.
Te - Эффективная температура - температура, которую ощущает одетый по сезону человек в тени. Характеристика душности погоды. При расчете учитывается влияние влажности воздуха и скорости ветра на теплоощущения человека.
Tes - Эффективная температура на солнце - температура, которую ощущает человек, с поправкой на солнечный нагрев. Характеристика знойности погоды. Зависит от высоты солнца над горизонтом, облачности и скорости ветра. Ночью, в пасмурную погоду, а также при ветре 12 м/с и более поправка равна нулю.
P - Атмосферное давление - приведенное к уровню моря атмосферное давление.
Po - Атмосферное давление - измеренное на уровне метеостанции атмосферное давление.
Tmin - Минимальная температура - минимум температуры воздуха на высоте 2 м над землей.
Tmax - Максимальная температура - максимум температуры воздуха на высоте 2 м над землей.
R - Количество осадков - Количество выпавших осадков за период времени, мм. При наведении курсора мыши на число - период времени, за который выпало указанное количество осадков.
R24 - Количество осадков - Количество выпавших осадков за 24 часа, мм.
S - Снежный покров - Высота снежного покрова, см. При наведении курсора мыши на число - состояние снежного покрова и степень покрытия местности в баллах.